カタログに戻る

FENGYUN 1C DEB

LostSSO
NORAD 32429·DEBRIS·🇨🇳 China

打ち上げ May 10, 1999 から Taiyuan Satellite Launch Center

Loading…

次のパス (今後24時間)

TLE

古いSource: Space-Track

元期: Apr 17, 2023, 14:01 UTC

1 32429U 99025DAR 23107.58413113  .00013023  00000-0  59789-2 0  9993
2 32429  99.0848 232.9340 0066280 189.7312 170.2584 14.20188749815551

AllMySatでFENGYUN 1C DEBをリアルタイム追跡

Download on the App Store